Weather History for Beaufort, SC

Change the Weather History Date:

Friday, February 14, 2014

  Actual Average (KNBC) Record (KNBC)
Temperature  
Mean Temperature 50 °F -  
Max Temperature 62 °F 61 °F 64 °F (2014)
Min Temperature 37 °F 40 °F 35 °F (2014)
Degree Days  
Heating Degree Days 16    
Moisture  
Dew Point 38 °F    
Average Humidity 68    
Maximum Humidity 87    
Minimum Humidity 37    
Precipitation  
Precipitation 0.00 in - - ()
Sea Level Pressure  
Sea Level Pressure 29.90 in    
Wind  
Wind Speed 9 mph (SW)    
Max Wind Speed 14 mph    
Max Gust Speed 21 mph    
Visibility 10 miles    
Events      
Averages and records for this station are not official NWS values.
T = Trace of Precipitation, MM = Missing Value Source: NWS Daily Summary

Daily Weather History Graph

Daily Weather History Graph

Search for Another Location

Airport:

Trip Planner

Search our weather history database for the weather conditions in past years. The results will help you decide how hot, cold, wet, or windy it might be!

Date:

Astronomy

Feb. 14, 2014 Rise Set
Actual Time 7:06 AM EST 6:07 PM EST
Civil Twilight 6:41 AM EST 6:32 PM EST
Nautical Twilight 6:12 AM EST 7:01 PM EST
Astronomical Twilight 5:43 AM EST 7:30 PM EST
Moon 6:07 PM EST (2/14) 6:34 AM EST (2/14)
Length of Visible Light 11h 51m
Length of Day
11h 01m
Full, 100% of the Moon is Illuminated
Feb 14
Full
Feb 14
Full
Feb 22
Last Quarter
Mar 1
New
Mar 8
First Quarter

Hourly Weather History & Observations

Time (EST) Temp. Windchill Dew Point Humidity Pressure Visibility Wind Dir Wind Speed Gust Speed Precip Events Conditions
12:15 AM 41.0 °F 35.2 °F 37.4 °F 87% 29.88 in 10.0 mi WSW 9.2 mph - N/A   Clear
12:35 AM 41.0 °F 34.7 °F 35.6 °F 81% 29.88 in 10.0 mi West 10.4 mph - N/A   Clear
12:55 AM 41.0 °F 35.2 °F 35.6 °F 81% 29.88 in 10.0 mi WSW 9.2 mph - N/A   Clear
1:15 AM 41.0 °F 34.3 °F 35.6 °F 81% 29.89 in 10.0 mi WSW 11.5 mph - N/A   Clear
1:35 AM 41.0 °F 34.7 °F 35.6 °F 81% 29.90 in 10.0 mi West 10.4 mph - N/A   Clear
1:55 AM 41.0 °F 36.4 °F 33.8 °F 76% 29.90 in 10.0 mi WSW 6.9 mph - N/A   Clear
2:15 AM 39.2 °F 33.0 °F 33.8 °F 81% 29.90 in 10.0 mi West 9.2 mph - N/A   Clear
2:35 AM 39.2 °F 32.0 °F 33.8 °F 81% 29.89 in 10.0 mi WNW 11.5 mph - N/A   Clear
2:55 AM 39.2 °F 32.0 °F 32.0 °F 75% 29.89 in 10.0 mi WNW 11.5 mph 16.1 mph N/A   Clear
3:15 AM 39.2 °F 33.0 °F 32.0 °F 75% 29.90 in 10.0 mi West 9.2 mph - N/A   Clear
3:35 AM 39.2 °F 32.5 °F 32.0 °F 75% 29.90 in 10.0 mi West 10.4 mph - N/A   Clear
3:55 AM 39.2 °F 34.2 °F 32.0 °F 75% 29.91 in 10.0 mi West 6.9 mph - N/A   Clear
4:15 AM 37.4 °F 32.1 °F 32.0 °F 81% 29.91 in 10.0 mi West 6.9 mph - N/A   Clear
4:35 AM 37.4 °F 32.1 °F 32.0 °F 81% 29.92 in 10.0 mi West 6.9 mph - N/A   Clear
4:55 AM 37.4 °F 32.1 °F 32.0 °F 81% 29.92 in 10.0 mi West 6.9 mph - N/A   Clear
5:15 AM 37.4 °F 32.8 °F 32.0 °F 81% 29.94 in 10.0 mi SW 5.8 mph - N/A   Clear
5:35 AM 37.4 °F 32.1 °F 32.0 °F 81% 29.94 in 10.0 mi WSW 6.9 mph - N/A   Clear
5:55 AM 37.4 °F 32.1 °F 32.0 °F 81% 29.94 in 10.0 mi SW 6.9 mph - N/A   Clear
6:15 AM 37.4 °F 30.3 °F 32.0 °F 81% 29.94 in 10.0 mi West 10.4 mph - N/A   Clear
6:35 AM 37.4 °F 32.1 °F 32.0 °F 81% 29.94 in 10.0 mi WSW 6.9 mph - N/A   Clear
6:55 AM 37.4 °F 32.8 °F 32.0 °F 81% 29.95 in 10.0 mi WSW 5.8 mph - N/A   Clear
7:15 AM 37.4 °F 32.1 °F 32.0 °F 81% 29.95 in 10.0 mi West 6.9 mph - N/A   Clear
7:35 AM 37.4 °F 32.8 °F 32.0 °F 81% 29.95 in 10.0 mi West 5.8 mph - N/A   Clear
7:55 AM 41.0 °F 36.4 °F 32.0 °F 70% 29.95 in 10.0 mi West 6.9 mph - N/A   Clear
8:15 AM 42.8 °F 37.5 °F 33.8 °F 70% 29.96 in 10.0 mi West 9.2 mph - N/A   Clear
8:35 AM 44.6 °F 39.7 °F 33.8 °F 66% 29.96 in 10.0 mi West 9.2 mph - N/A   Clear
8:55 AM 46.4 °F 41.1 °F 33.8 °F 62% 29.96 in 10.0 mi West 11.5 mph - N/A   Clear
9:15 AM 48.2 °F - 35.6 °F 62% 29.98 in 10.0 mi WSW 9.2 mph - N/A   Clear
9:35 AM 50.0 °F - 35.6 °F 58% 29.98 in 10.0 mi WSW 8.1 mph - N/A   Clear
9:55 AM 50.0 °F - 35.6 °F 58% 29.97 in 10.0 mi West 12.7 mph 16.1 mph N/A   Clear
10:15 AM 51.8 °F - 35.6 °F 54% 29.97 in 10.0 mi WSW 10.4 mph - N/A   Clear
10:35 AM 53.6 °F - 35.6 °F 51% 29.97 in 10.0 mi WSW 11.5 mph 16.1 mph N/A   Clear
10:55 AM 53.6 °F - 37.4 °F 54% 29.97 in 10.0 mi WSW 10.4 mph 16.1 mph N/A   Clear
11:15 AM 55.4 °F - 37.4 °F 51% 29.96 in 10.0 mi WSW 12.7 mph 17.3 mph N/A   Clear
11:35 AM 55.4 °F - 35.6 °F 47% 29.95 in 10.0 mi WSW 12.7 mph - N/A   Clear
11:55 AM 57.2 °F - 37.4 °F 48% 29.94 in 10.0 mi WSW 10.4 mph - N/A   Clear
12:15 PM 59.0 °F - 37.4 °F 45% 29.94 in 10.0 mi WSW 9.2 mph 17.3 mph N/A   Clear
12:35 PM 59.0 °F - 35.6 °F 42% 29.93 in 10.0 mi SW 11.5 mph 17.3 mph N/A   Clear
12:55 PM 59.0 °F - 35.6 °F 42% 29.93 in 10.0 mi WSW 11.5 mph 19.6 mph N/A   Clear
1:15 PM 60.8 °F - 35.6 °F 39% 29.92 in 10.0 mi WSW 13.8 mph 20.7 mph N/A   Clear
1:35 PM 60.8 °F - 35.6 °F 39% 29.91 in 10.0 mi WSW 9.2 mph 17.3 mph N/A   Clear
1:55 PM 60.8 °F - 35.6 °F 39% 29.90 in 10.0 mi SW 11.5 mph 18.4 mph N/A   Clear
2:15 PM 62.6 °F - 35.6 °F 37% 29.90 in 10.0 mi SW 11.5 mph - N/A   Clear
2:35 PM 62.6 °F - 35.6 °F 37% 29.89 in 10.0 mi SSW 10.4 mph 18.4 mph N/A   Clear
2:55 PM 60.8 °F - 41.0 °F 48% 29.88 in 10.0 mi South 6.9 mph - N/A   Clear
3:15 PM 60.8 °F - 42.8 °F 52% 29.88 in 10.0 mi SSW 9.2 mph - N/A   Clear
3:35 PM 59.0 °F - 42.8 °F 55% 29.88 in 10.0 mi South 10.4 mph - N/A   Clear
3:55 PM 57.2 °F - 44.6 °F 63% 29.88 in 10.0 mi South 9.2 mph - N/A   Clear
4:15 PM 55.4 °F - 42.8 °F 63% 29.88 in 10.0 mi SSW 6.9 mph 16.1 mph N/A   Clear
4:35 PM 53.6 °F - 44.6 °F 72% 29.87 in 10.0 mi South 6.9 mph - N/A   Clear
4:55 PM 53.6 °F - 42.8 °F 67% 29.88 in 10.0 mi South 8.1 mph - N/A   Clear
5:15 PM 51.8 °F - 44.6 °F 76% 29.88 in 10.0 mi South 6.9 mph - N/A   Clear
5:35 PM 51.8 °F - 44.6 °F 76% 29.88 in 10.0 mi South 6.9 mph - N/A   Clear
5:55 PM 51.8 °F - 44.6 °F 76% 29.88 in 10.0 mi SSW 8.1 mph - N/A   Clear
6:15 PM 51.8 °F - 42.8 °F 71% 29.88 in 10.0 mi SSW 4.6 mph - N/A   Clear
6:35 PM 51.8 °F - 41.0 °F 67% 29.88 in 10.0 mi SSW 5.8 mph - N/A   Clear
6:55 PM 51.8 °F - 41.0 °F 67% 29.89 in 10.0 mi SSW 6.9 mph - N/A   Clear
7:15 PM 51.8 °F - 41.0 °F 67% 29.88 in 10.0 mi South 6.9 mph - N/A   Clear
7:35 PM 51.8 °F - 42.8 °F 71% 29.88 in 10.0 mi SSW 8.1 mph - N/A   Clear
7:55 PM 51.8 °F - 42.8 °F 71% 29.87 in 10.0 mi South 3.5 mph - N/A   Clear
8:15 PM 51.8 °F - 44.6 °F 76% 29.86 in 10.0 mi South 12.7 mph 19.6 mph N/A   Clear
8:35 PM 51.8 °F - 44.6 °F 76% 29.86 in 10.0 mi SSW 9.2 mph 16.1 mph N/A   Clear
8:55 PM 51.8 °F - 44.6 °F 76% 29.85 in 10.0 mi South 4.6 mph - N/A   Clear
9:15 PM 51.8 °F - 42.8 °F 71% 29.85 in 10.0 mi South 3.5 mph - N/A   Clear
9:35 PM 50.0 °F - 44.6 °F 82% 29.83 in 10.0 mi South 5.8 mph - N/A   Clear
9:55 PM 51.8 °F - 44.6 °F 76% 29.83 in 10.0 mi SSW 6.9 mph - N/A   Clear
10:15 PM 51.8 °F - 44.6 °F 76% 29.84 in 10.0 mi SSW 5.8 mph - N/A   Clear
10:35 PM 51.8 °F - 44.6 °F 76% 29.82 in 10.0 mi SSW 5.8 mph - N/A   Clear
10:55 PM 51.8 °F - 42.8 °F 71% 29.82 in 10.0 mi SSW 8.1 mph - N/A   Clear
11:15 PM 51.8 °F - 44.6 °F 76% 29.82 in 10.0 mi SW 8.1 mph - N/A   Clear
11:35 PM 51.8 °F - 44.6 °F 76% 29.80 in 10.0 mi SSW 9.2 mph - N/A   Clear
11:55 PM 51.8 °F - 44.6 °F 76% 29.80 in 10.0 mi SSW 8.1 mph - N/A   Clear